| time (UTC) | temp C | wind direction | speed KPH | gust KPH | rain 1hr cm | rain 24hr cm | rain mn cm | humidity % | barometer mb |
| 20260901071552 | -17 | 0.0 | 0.0 | 0.00 | 0.00 | 0.00 | |||
| 20260901064200 | 16 | 284 | 12.9 | 17.7 | 0.00 | 0.00 | 0.00 | 69 | 1012.4 |
| 20260901063435 | 16 | 260 | 12.9 | 29.0 | 0.00 | 0.00 | 0.00 | 69 | 1012.4 |
| 20260901062935 | 16 | 237 | 11.3 | 29.0 | 0.00 | 0.00 | 0.00 | 68 | 1012.3 |
| 20260901062431 | 16 | 254 | 11.3 | 24.1 | 0.00 | 0.00 | 0.00 | 69 | 1012.3 |
| 20260901061937 | 16 | 275 | 11.3 | 9.7 | 0.00 | 0.00 | 0.00 | 69 | 1012.3 |
| 20260901061629 | -17 | 0.0 | 0.0 | 0.00 | 0.00 | 0.00 | |||
| 20260901060348 | 16 | 240 | 11.3 | 20.9 | 0.00 | 0.00 | 0.00 | 68 | 1012.5 |
| 20260901055845 | 16 | 240 | 11.3 | 20.9 | 0.00 | 0.00 | 0.00 | 68 | 1012.5 |
| 20260901055608 | 16 | 237 | 4.8 | 19.3 | 0.00 | 0.00 | 0.00 | 68 | 1012.6 |
| 20260901055107 | 16 | 264 | 4.8 | 14.5 | 0.00 | 0.00 | 0.00 | 68 | 1012.6 |
| 20260901054342 | 16 | 243 | 4.8 | 11.3 | 0.00 | 0.00 | 0.00 | 68 | 1012.6 |
| 20260901054102 | 16 | 249 | 6.4 | 17.7 | 0.00 | 0.00 | 0.00 | 69 | 1012.5 |
| 20260901053340 | 16 | 221 | 8.0 | 17.7 | 0.00 | 0.00 | 0.00 | 69 | 1012.4 |
| 20260901052839 | 16 | 240 | 11.3 | 17.7 | 0.00 | 0.00 | 0.00 | 69 | 1012.3 |
| 20260901052340 | 16 | 265 | 11.3 | 17.7 | 0.00 | 0.00 | 0.00 | 69 | 1012.3 |
| 20260901051832 | 16 | 273 | 12.9 | 16.1 | 0.00 | 0.00 | 0.00 | 69 | 1012.3 |
| 20260901051524 | -17 | 0.0 | 0.0 | 0.00 | 0.00 | 0.00 | |||
| 20260901050125 | 16 | 278 | 11.3 | 20.9 | 0.00 | 0.00 | 0.00 | 69 | 1012.4 |
| 20260901045357 | 16 | 259 | 12.9 | 22.5 | 0.00 | 0.00 | 0.00 | 69 | 1012.4 |
| 20260901044857 | 16 | 250 | 12.9 | 22.5 | 0.00 | 0.00 | 0.00 | 69 | 1012.4 |
| 20260901044358 | 16 | 274 | 9.7 | 19.3 | 0.00 | 0.00 | 0.00 | 69 | 1012.3 |
| 20260901043855 | 16 | 244 | 8.0 | 16.1 | 0.00 | 0.00 | 0.00 | 69 | 1012.2 |
| 20260901043356 | 16 | 251 | 8.0 | 14.5 | 0.00 | 0.00 | 0.00 | 68 | 1012.2 |
| 20260901042854 | 16 | 261 | 6.4 | 14.5 | 0.00 | 0.00 | 0.00 | 68 | 1012.2 |
| 20260901042616 | 16 | 275 | 4.8 | 12.9 | 0.00 | 0.00 | 0.00 | 68 | 1012.1 |
| 20260901041852 | 16 | 266 | 4.8 | 14.5 | 0.00 | 0.00 | 0.00 | 67 | 1012.2 |
| 20260901041352 | 16 | 231 | 4.8 | 14.5 | 0.00 | 0.00 | 0.00 | 68 | 1012.1 |
| 20260901040852 | 16 | 268 | 6.4 | 17.7 | 0.00 | 0.00 | 0.00 | 67 | 1011.9 |
| 20260901040349 | 16 | 262 | 8.0 | 17.7 | 0.00 | 0.00 | 0.00 | 67 | 1011.8 |
| 20260901035849 | 16 | 234 | 6.4 | 16.1 | 0.00 | 0.00 | 0.00 | 67 | 1011.8 |
| 20260901035350 | 17 | 242 | 6.4 | 16.1 | 0.00 | 0.00 | 0.00 | 67 | 1011.8 |
| 20260901034846 | 17 | 259 | 4.8 | 11.3 | 0.00 | 0.00 | 0.00 | 67 | 1011.7 |
| 20260901034346 | 17 | 240 | 6.4 | 12.9 | 0.00 | 0.00 | 0.00 | 66 | 1011.7 |
| 20260901033845 | 17 | 232 | 4.8 | 12.9 | 0.00 | 0.00 | 0.00 | 66 | 1011.6 |
| 20260901033346 | 17 | 269 | 4.8 | 12.9 | 0.00 | 0.00 | 0.00 | 66 | 1011.5 |
| 20260901032841 | 17 | 230 | 6.4 | 12.9 | 0.00 | 0.00 | 0.00 | 66 | 1011.4 |
| 20260901032339 | 17 | 243 | 4.8 | 14.5 | 0.00 | 0.00 | 0.00 | 66 | 1011.3 |
| 20260901031839 | 17 | 276 | 6.4 | 14.5 | 0.00 | 0.00 | 0.00 | 65 | 1011.2 |
| 20260901031553 | 17 | 249 | 6.4 | 16.1 | 0.00 | 0.00 | 0.00 | 65 | 1011.1 |
| 20260901031054 | 17 | 245 | 8.0 | 16.1 | 0.00 | 0.00 | 0.00 | 65 | 1011.0 |
| 20260901030332 | 17 | 289 | 8.0 | 14.5 | 0.00 | 0.00 | 0.00 | 65 | 1010.9 |
| 20260901025831 | 17 | 268 | 8.0 | 14.5 | 0.00 | 0.00 | 0.00 | 64 | 1011.0 |
| 20260901025332 | 18 | 273 | 8.0 | 19.3 | 0.00 | 0.00 | 0.00 | 64 | 1011.0 |
| 20260901025055 | 18 | 275 | 8.0 | 19.3 | 0.00 | 0.00 | 0.00 | 64 | 1010.9 |
| 20260901024328 | 18 | 265 | 8.0 | 14.5 | 0.00 | 0.00 | 0.00 | 64 | 1010.9 |
| 20260901023829 | 18 | 259 | 8.0 | 16.1 | 0.00 | 0.00 | 0.00 | 63 | 1010.9 |
| 20260901023541 | 18 | 292 | 9.7 | 16.1 | 0.00 | 0.00 | 0.00 | 62 | 1010.9 |
| 20260901022822 | 18 | 265 | 8.0 | 17.7 | 0.00 | 0.00 | 0.00 | 61 | 1010.9 |
| 20260901022319 | 18 | 281 | 8.0 | 17.7 | 0.00 | 0.00 | 0.00 | 61 | 1010.8 |
| 20260901021819 | 19 | 259 | 9.7 | 16.1 | 0.00 | 0.00 | 0.00 | 61 | 1010.7 |
| 20260901021319 | 19 | 260 | 9.7 | 16.1 | 0.00 | 0.00 | 0.00 | 60 | 1010.7 |
| 20260901020819 | 20 | 273 | 8.0 | 16.1 | 0.00 | 0.00 | 0.00 | 59 | 1010.7 |
| 20260901020318 | 20 | 266 | 8.0 | 16.1 | 0.00 | 0.00 | 0.00 | 58 | 1010.8 |
| 20260901015818 | 20 | 236 | 9.7 | 16.1 | 0.00 | 0.00 | 0.00 | 58 | 1010.8 |
| 20260901015316 | 20 | 255 | 9.7 | 16.1 | 0.00 | 0.00 | 0.00 | 57 | 1010.8 |
| 20260901014818 | 20 | 274 | 9.7 | 17.7 | 0.00 | 0.00 | 0.00 | 56 | 1010.8 |
| 20260901014221 | 21 | 292 | 8.0 | 17.7 | 0.00 | 0.00 | 0.00 | 56 | 1010.8 |
| 20260901013720 | 21 | 246 | 8.0 | 16.1 | 0.00 | 0.00 | 0.00 | 55 | 1010.7 |
| 20260901013217 | 21 | 279 | 8.0 | 16.1 | 0.00 | 0.00 | 0.00 | 55 | 1010.8 |
| 20260901012715 | 21 | 273 | 9.7 | 16.1 | 0.00 | 0.00 | 0.00 | 54 | 1010.7 |
| 20260901012656 | 21 | 243 | 11.3 | 19.3 | 0.00 | 0.00 | 0.00 | 54 | 1010.7 |
| 20260901011709 | 21 | 239 | 11.3 | 19.3 | 0.00 | 0.00 | 0.00 | 53 | 1010.6 |
| 20260901011209 | 22 | 267 | 11.3 | 19.3 | 0.00 | 0.00 | 0.00 | 52 | 1010.6 |
| 20260901010707 | 22 | 265 | 11.3 | 27.4 | 0.00 | 0.00 | 0.00 | 52 | 1010.5 |
| 20260901010207 | 22 | 258 | 12.9 | 27.4 | 0.00 | 0.00 | 0.00 | 52 | 1010.5 |
| 20260901005929 | 22 | 266 | 12.9 | 20.9 | 0.00 | 0.00 | 0.00 | 51 | 1010.5 |
| 20260901005206 | 22 | 292 | 11.3 | 20.9 | 0.00 | 0.00 | 0.00 | 51 | 1010.4 |
| 20260901004706 | 22 | 311 | 9.7 | 20.9 | 0.00 | 0.00 | 0.00 | 50 | 1010.3 |
| 20260901004207 | 23 | 275 | 8.0 | 19.3 | 0.00 | 0.00 | 0.00 | 49 | 1010.4 |
| 20260901003925 | 23 | 244 | 9.7 | 19.3 | 0.00 | 0.00 | 0.00 | 49 | 1010.4 |
| 20260901003206 | 23 | 281 | 11.3 | 19.3 | 0.00 | 0.00 | 0.00 | 48 | 1010.4 |
| 20260901002705 | 23 | 254 | 11.3 | 20.9 | 0.00 | 0.00 | 0.00 | 48 | 1010.4 |
| 20260901002205 | 23 | 256 | 12.9 | 24.1 | 0.00 | 0.00 | 0.00 | 47 | 1010.5 |
| 20260901001704 | 23 | 266 | 12.9 | 24.1 | 0.00 | 0.00 | 0.00 | 47 | 1010.5 |
| 20260901001201 | 23 | 227 | 11.3 | 20.9 | 0.00 | 0.00 | 0.00 | 46 | 1010.5 |
| 20260901000924 | 24 | 229 | 11.3 | 22.5 | 0.00 | 0.00 | 0.00 | 46 | 1010.4 |
| 20260901000159 | 24 | 248 | 11.3 | 22.5 | 0.00 | 0.00 | 0.00 | 45 | 1010.5 |
| 20260831235659 | 24 | 258 | 11.3 | 24.1 | 0.00 | 0.00 | 0.00 | 45 | 1010.5 |
| 20260831235159 | 24 | 230 | 12.9 | 24.1 | 0.00 | 0.00 | 0.00 | 45 | 1010.6 |
| 20260831234658 | 25 | 260 | 11.3 | 22.5 | 0.00 | 0.00 | 0.00 | 45 | 1010.6 |
| 20260831234152 | 25 | 234 | 11.3 | 20.9 | 0.00 | 0.00 | 0.00 | 45 | 1010.6 |
| 20260831233652 | 25 | 236 | 11.3 | 20.9 | 0.00 | 0.00 | 0.00 | 45 | 1010.6 |
| 20260831233152 | 25 | 277 | 11.3 | 20.9 | 0.00 | 0.00 | 0.00 | 44 | 1010.6 |
| 20260831232650 | 25 | 267 | 11.3 | 20.9 | 0.00 | 0.00 | 0.00 | 44 | 1010.6 |
| 20260831232151 | 25 | 284 | 11.3 | 20.9 | 0.00 | 0.00 | 0.00 | 44 | 1010.6 |
| 20260831231651 | 25 | 320 | 11.3 | 22.5 | 0.00 | 0.00 | 0.00 | 43 | 1010.6 |
| 20260831231142 | 25 | 258 | 11.3 | 22.5 | 0.00 | 0.00 | 0.00 | 44 | 1010.7 |
| 20260831230641 | 25 | 221 | 11.3 | 19.3 | 0.00 | 0.00 | 0.00 | 41 | 1010.6 |
| 20260831230141 | 25 | 266 | 11.3 | 19.3 | 0.00 | 0.00 | 0.00 | 42 | 1010.6 |
| 20260831225640 | 25 | 238 | 11.3 | 19.3 | 0.00 | 0.00 | 0.00 | 42 | 1010.7 |
| 20260831225141 | 25 | 226 | 11.3 | 22.5 | 0.00 | 0.00 | 0.00 | 43 | 1010.8 |
| 20260831224640 | 25 | 246 | 11.3 | 22.5 | 0.00 | 0.00 | 0.00 | 43 | 1010.7 |
| 20260831224400 | 25 | 244 | 11.3 | 22.5 | 0.00 | 0.00 | 0.00 | 42 | 1010.9 |
| 20260831223639 | 25 | 232 | 9.7 | 19.3 | 0.00 | 0.00 | 0.00 | 43 | 1010.9 |
| 20260831223136 | 25 | 238 | 11.3 | 19.3 | 0.00 | 0.00 | 0.00 | 43 | 1011.0 |
| 20260831222636 | 25 | 227 | 12.9 | 20.9 | 0.00 | 0.00 | 0.00 | 42 | 1011.0 |
| 20260831222403 | 26 | 225 | 14.5 | 24.1 | 0.00 | 0.00 | 0.00 | 42 | 1011.0 |
| 20260831221627 | 26 | 260 | 12.9 | 24.1 | 0.00 | 0.00 | 0.00 | 42 | 1011.1 |
| 20260831221126 | 26 | 238 | 11.3 | 22.5 | 0.00 | 0.00 | 0.00 | 42 | 1011.1 |
| 20260831220626 | 26 | 253 | 11.3 | 19.3 | 0.00 | 0.00 | 0.00 | 41 | 1011.2 |
| 20260831220125 | 26 | 219 | 9.7 | 19.3 | 0.00 | 0.00 | 0.00 | 41 | 1011.3 |
| 20260831215623 | 26 | 300 | 8.0 | 19.3 | 0.00 | 0.00 | 0.00 | 42 | 1011.3 |
| 20260831215347 | 26 | 301 | 8.0 | 16.1 | 0.00 | 0.00 | 0.00 | 41 | 1011.3 |
| 20260831214620 | 26 | 281 | 9.7 | 19.3 | 0.00 | 0.00 | 0.00 | 42 | 1011.4 |
| 20260831214118 | 26 | 320 | 9.7 | 20.9 | 0.00 | 0.00 | 0.00 | 41 | 1011.5 |
| 20260831213841 | 26 | 274 | 11.3 | 20.9 | 0.00 | 0.00 | 0.00 | 41 | 1011.5 |
| 20260831213119 | 26 | 242 | 11.3 | 19.3 | 0.00 | 0.00 | 0.00 | 42 | 1011.6 |
| 20260831212619 | 25 | 276 | 11.3 | 22.5 | 0.00 | 0.00 | 0.00 | 43 | 1011.7 |
| 20260831212340 | 26 | 300 | 11.3 | 22.5 | 0.00 | 0.00 | 0.00 | 42 | 1011.7 |
| 20260831211617 | 26 | 254 | 11.3 | 20.9 | 0.00 | 0.00 | 0.00 | 42 | 1011.7 |
| 20260831211116 | 26 | 224 | 11.3 | 19.3 | 0.00 | 0.00 | 0.00 | 42 | 1011.8 |
| 20260831210615 | 26 | 274 | 11.3 | 19.3 | 0.00 | 0.00 | 0.00 | 42 | 1011.8 |
| 20260831210115 | 26 | 246 | 9.7 | 19.3 | 0.00 | 0.00 | 0.00 | 41 | 1011.8 |
| 20260831205833 | 26 | 233 | 8.0 | 19.3 | 0.00 | 0.00 | 0.00 | 41 | 1011.8 |
| 20260831205113 | 27 | 244 | 8.0 | 19.3 | 0.00 | 0.00 | 0.00 | 40 | 1011.8 |
| 20260831204612 | 27 | 287 | 9.7 | 19.3 | 0.00 | 0.00 | 0.00 | 39 | 1011.8 |
| 20260831204112 | 27 | 238 | 8.0 | 16.1 | 0.00 | 0.00 | 0.00 | 40 | 1011.9 |
| 20260831203602 | 26 | 215 | 9.7 | 17.7 | 0.00 | 0.00 | 0.00 | 42 | 1011.9 |
| 20260831203101 | 26 | 267 | 11.3 | 24.1 | 0.00 | 0.00 | 0.00 | 43 | 1011.9 |
| 20260831202558 | 26 | 241 | 9.7 | 24.1 | 0.00 | 0.00 | 0.00 | 42 | 1011.9 |
| 20260831202059 | 26 | 274 | 8.0 | 16.1 | 0.00 | 0.00 | 0.00 | 41 | 1012.0 |
| 20260831201824 | 26 | 187 | 6.4 | 17.7 | 0.00 | 0.00 | 0.00 | 41 | 1011.9 |
| 20260831201056 | 26 | 294 | 6.4 | 17.7 | 0.00 | 0.00 | 0.00 | 40 | 1011.8 |
| 20260831200555 | 27 | 215 | 8.0 | 19.3 | 0.00 | 0.00 | 0.00 | 40 | 1011.9 |
| 20260831200054 | 26 | 232 | 8.0 | 19.3 | 0.00 | 0.00 | 0.00 | 41 | 1011.8 |
| 20260831195813 | 25 | 196 | 4.8 | 17.7 | 0.00 | 0.00 | 0.00 | 43 | 1011.9 |
| 20260831195053 | 25 | 300 | 3.2 | 17.7 | 0.00 | 0.00 | 0.00 | 44 | 1011.8 |
| 20260831194547 | 24 | 101 | 1.6 | 6.4 | 0.00 | 0.00 | 0.00 | 45 | 1011.9 |
| 20260831194048 | 25 | 264 | 3.2 | 9.7 | 0.00 | 0.00 | 0.00 | 45 | 1012.0 |
| 20260831193546 | 25 | 290 | 3.2 | 9.7 | 0.00 | 0.00 | 0.00 | 44 | 1012.1 |
| 20260831193045 | 25 | 218 | 1.6 | 9.7 | 0.00 | 0.00 | 0.00 | 47 | 1012.2 |
| 20260831192544 | 24 | 137 | 3.2 | 9.7 | 0.00 | 0.00 | 0.00 | 47 | 1012.2 |
| 20260831192044 | 24 | 220 | 4.8 | 9.7 | 0.00 | 0.00 | 0.00 | 47 | 1012.3 |
| 20260831191557 | 24 | 182 | 4.8 | 14.5 | 0.00 | 0.00 | 0.00 | 47 | 1012.3 |
| 20260831191257 | 24 | 252 | 4.8 | 14.5 | 0.00 | 0.00 | 0.00 | 46 | 1012.4 |
| 20260831190539 | 24 | 193 | 4.8 | 12.9 | 0.00 | 0.00 | 0.00 | 48 | 1012.3 |
| 20260831190037 | 24 | 225 | 4.8 | 12.9 | 0.00 | 0.00 | 0.00 | 46 | 1012.4 |
| 20260831185537 | 23 | 223 | 4.8 | 12.9 | 0.00 | 0.00 | 0.00 | 48 | 1012.4 |
| 20260831185034 | 24 | 229 | 4.8 | 11.3 | 0.00 | 0.00 | 0.00 | 47 | 1012.5 |
| 20260831184534 | 23 | 159 | 3.2 | 11.3 | 0.00 | 0.00 | 0.00 | 49 | 1012.5 |
| 20260831184033 | 23 | 182 | 4.8 | 12.9 | 0.00 | 0.00 | 0.00 | 50 | 1012.5 |
| 20260831183531 | 23 | 250 | 4.8 | 12.9 | 0.00 | 0.00 | 0.00 | 48 | 1012.5 |
| 20260831183031 | 23 | 200 | 3.2 | 11.3 | 0.00 | 0.00 | 0.00 | 48 | 1012.5 |
| 20260831182530 | 23 | 90 | 3.2 | 9.7 | 0.00 | 0.00 | 0.00 | 49 | 1012.5 |
| 20260831182027 | 23 | 236 | 3.2 | 12.9 | 0.00 | 0.00 | 0.00 | 49 | 1012.5 |
| 20260831181524 | 23 | 228 | 3.2 | 12.9 | 0.00 | 0.00 | 0.00 | 51 | 1012.5 |
| 20260831181014 | 21 | 205 | 1.6 | 4.8 | 0.00 | 0.00 | 0.00 | 55 | 1012.5 |
| 20260831180512 | 21 | 13 | 3.2 | 4.8 | 0.00 | 0.00 | 0.00 | 57 | 1012.5 |
| 20260831180453 | 21 | 10 | 1.6 | 6.4 | 0.00 | 0.00 | 0.00 | 60 | 1012.4 |
| 20260831175511 | 21 | 79 | 1.6 | 6.4 | 0.00 | 0.00 | 0.00 | 58 | 1012.4 |
| 20260831175008 | 20 | 82 | 3.2 | 9.7 | 0.00 | 0.00 | 0.00 | 60 | 1012.4 |
| 20260831174955 | 20 | 82 | 1.6 | 9.7 | 0.00 | 0.00 | 0.00 | 61 | 1012.4 |
| 20260831174008 | 20 | 103 | 1.6 | 6.4 | 0.00 | 0.00 | 0.00 | 63 | 1012.4 |
| 20260831173726 | 19 | 113 | 3.2 | 6.4 | 0.00 | 0.00 | 0.00 | 64 | 1012.4 |
| 20260831173006 | 19 | 111 | 3.2 | 6.4 | 0.00 | 0.00 | 0.00 | 64 | 1012.3 |
| 20260831172504 | 18 | 70 | 3.2 | 8.0 | 0.00 | 0.00 | 0.00 | 65 | 1012.4 |
| 20260831172004 | 18 | 61 | 3.2 | 8.0 | 0.00 | 0.00 | 0.00 | 65 | 1012.4 |
| 20260831171505 | 18 | 92 | 3.2 | 8.0 | 0.00 | 0.00 | 0.00 | 65 | 1012.3 |
| 20260831171221 | 18 | 61 | 1.6 | 6.4 | 0.00 | 0.00 | 0.00 | 65 | 1012.2 |
| 20260831170455 | 18 | 93 | 1.6 | 6.4 | 0.00 | 0.00 | 0.00 | 66 | 1012.2 |
| 20260831165954 | 18 | 96 | 3.2 | 6.4 | 0.00 | 0.00 | 0.00 | 68 | 1012.2 |
| 20260831165454 | 17 | 89 | 3.2 | 6.4 | 0.00 | 0.00 | 0.00 | 71 | 1012.1 |
| 20260831164945 | 17 | 63 | 3.2 | 6.4 | 0.00 | 0.00 | 0.00 | 71 | 1012.0 |
| 20260831164711 | 16 | 67 | 3.2 | 6.4 | 0.00 | 0.00 | 0.00 | 73 | 1012.1 |
| 20260831164204 | 16 | 69 | 3.2 | 8.0 | 0.00 | 0.00 | 0.00 | 74 | 1012.0 |
| 20260831163709 | 16 | 71 | 3.2 | 8.0 | 0.00 | 0.00 | 0.00 | 75 | 1011.9 |
| 20260831162941 | 16 | 65 | 3.2 | 8.0 | 0.00 | 0.00 | 0.00 | 76 | 1011.9 |
| 20260831162440 | 16 | 66 | 3.2 | 8.0 | 0.00 | 0.00 | 0.00 | 77 | 1011.9 |
| 20260831162159 | 15 | 67 | 1.6 | 6.4 | 0.00 | 0.00 | 0.00 | 78 | 1011.8 |
| 20260831161440 | 15 | 69 | 1.6 | 6.4 | 0.00 | 0.00 | 0.00 | 79 | 1011.8 |
| 20260831160937 | 15 | 71 | 1.6 | 6.4 | 0.00 | 0.00 | 0.00 | 80 | 1011.8 |
| 20260831160436 | 15 | 65 | 1.6 | 6.4 | 0.00 | 0.00 | 0.00 | 80 | 1011.7 |
| 20260831155935 | 15 | 35 | 0.0 | 4.8 | 0.00 | 0.00 | 0.00 | 81 | 1011.7 |
| 20260831155436 | 15 | 32 | 0.0 | 3.2 | 0.00 | 0.00 | 0.00 | 80 | 1011.7 |
| 20260831155152 | 14 | 32 | 0.0 | 1.6 | 0.00 | 0.00 | 0.00 | 81 | 1011.7 |
| 20260831154436 | 14 | 32 | 0.0 | 1.6 | 0.00 | 0.00 | 0.00 | 81 | 1011.7 |
| 20260831154200 | 14 | 32 | 0.0 | 1.6 | 0.00 | 0.00 | 0.00 | 81 | 1011.6 |
| 20260831153432 | 14 | 32 | 0.0 | 1.6 | 0.00 | 0.00 | 0.00 | 82 | 1011.7 |
| 20260831152931 | 14 | 31 | 0.0 | 3.2 | 0.00 | 0.00 | 0.00 | 82 | 1011.6 |
| 20260831152430 | 14 | 30 | 0.0 | 3.2 | 0.00 | 0.00 | 0.00 | 82 | 1011.7 |
| 20260831151931 | 13 | 30 | 0.0 | 1.6 | 0.00 | 0.00 | 0.00 | 83 | 1011.7 |
| 20260831151420 | 13 | 30 | 0.0 | 1.6 | 0.00 | 0.00 | 0.00 | 83 | 1011.7 |
| 20260831150918 | 13 | 30 | 0.0 | 0.0 | 0.00 | 0.00 | 0.00 | 83 | 1011.7 |
| 20260831150410 | 13 | 30 | 0.0 | 0.0 | 0.00 | 0.00 | 0.00 | 83 | 1011.5 |
| 20260831145907 | 13 | 30 | 0.0 | 1.6 | 0.00 | 0.00 | 0.00 | 83 | 1011.6 |
| 20260831145406 | 13 | 30 | 0.0 | 1.6 | 0.00 | 0.00 | 0.00 | 83 | 1011.5 |
| 20260831144908 | 13 | 30 | 0.0 | 1.6 | 0.00 | 0.00 | 0.00 | 83 | 1011.5 |
| 20260831144407 | 13 | 30 | 0.0 | 1.6 | 0.00 | 0.00 | 0.00 | 82 | 1011.5 |
| 20260831144124 | 13 | 30 | 0.0 | 0.0 | 0.00 | 0.00 | 0.00 | 82 | 1011.5 |
| 20260831143400 | 13 | 30 | 0.0 | 0.0 | 0.00 | 0.00 | 0.00 | 82 | 1011.4 |
| 20260831142900 | 13 | 30 | 0.0 | 0.0 | 0.00 | 0.00 | 0.00 | 82 | 1011.4 |
| 20260831142358 | 13 | 30 | 0.0 | 1.6 | 0.00 | 0.00 | 0.00 | 82 | 1011.3 |
| 20260831142121 | 13 | 30 | 0.0 | 1.6 | 0.00 | 0.00 | 0.00 | 82 | 1011.2 |
| 20260831141358 | 13 | 30 | 0.0 | 1.6 | 0.00 | 0.00 | 0.00 | 82 | 1011.2 |
| 20260831140852 | 13 | 30 | 0.0 | 0.0 | 0.00 | 0.00 | 0.00 | 83 | 1011.1 |
| 20260831140350 | 13 | 30 | 0.0 | 1.6 | 0.00 | 0.00 | 0.00 | 83 | 1011.0 |
| 20260831140338 | 13 | 30 | 0.0 | 1.6 | 0.00 | 0.00 | 0.00 | 83 | 1011.0 |
| 20260831135347 | 13 | 30 | 0.0 | 0.0 | 0.00 | 0.00 | 0.00 | 83 | 1010.9 |
| 20260831134845 | 13 | 30 | 0.0 | 1.6 | 0.00 | 0.00 | 0.00 | 83 | 1010.8 |
| 20260831134343 | 13 | 30 | 0.0 | 1.6 | 0.00 | 0.00 | 0.00 | 83 | 1010.7 |
| 20260831133841 | 13 | 30 | 0.0 | 0.0 | 0.00 | 0.00 | 0.00 | 83 | 1010.7 |
| 20260831133340 | 13 | 30 | 0.0 | 0.0 | 0.00 | 0.00 | 0.00 | 83 | 1010.6 |
| 20260831132837 | 13 | 30 | 0.0 | 0.0 | 0.00 | 0.00 | 0.00 | 83 | 1010.6 |
| 20260831132338 | 13 | 30 | 0.0 | 0.0 | 0.00 | 0.00 | 0.00 | 83 | 1010.6 |
| 20260831131836 | 13 | 30 | 0.0 | 0.0 | 0.00 | 0.00 | 0.00 | 83 | 1010.6 |
| 20260831131549 | 13 | 30 | 0.0 | 0.0 | 0.00 | 0.00 | 0.00 | 83 | 1010.5 |
| 20260831131055 | 13 | 30 | 0.0 | 0.0 | 0.00 | 0.00 | 0.00 | 83 | 1010.6 |
| 20260831130329 | 13 | 30 | 0.0 | 3.2 | 0.00 | 0.00 | 0.00 | 83 | 1010.5 |
| 20260831130055 | 13 | 30 | 0.0 | 4.8 | 0.00 | 0.00 | 0.00 | 83 | 1010.4 |
| 20260831125325 | 14 | 30 | 0.0 | 4.8 | 0.00 | 0.00 | 0.00 | 82 | 1010.3 |
| 20260831124824 | 14 | 302 | 0.0 | 0.0 | 0.00 | 0.00 | 0.00 | 82 | 1010.4 |
| 20260831124547 | 14 | 303 | 0.0 | 1.6 | 0.00 | 0.00 | 0.00 | 81 | 1010.3 |
| 20260831123816 | 14 | 303 | 0.0 | 3.2 | 0.00 | 0.00 | 0.00 | 80 | 1010.3 |
| 20260831123314 | 14 | 303 | 1.6 | 4.8 | 0.00 | 0.00 | 0.00 | 79 | 1010.2 |
| 20260831122813 | 14 | 303 | 1.6 | 8.0 | 0.00 | 0.00 | 0.00 | 78 | 1010.2 |
| 20260831122536 | 14 | 304 | 1.6 | 8.0 | 0.00 | 0.00 | 0.00 | 80 | 1010.2 |
| 20260831121810 | 14 | 293 | 0.0 | 6.4 | 0.00 | 0.00 | 0.00 | 82 | 1010.2 |
| 20260831121308 | 14 | 195 | 0.0 | 1.6 | 0.00 | 0.00 | 0.00 | 82 | 1010.2 |
| 20260831120806 | 14 | 195 | 0.0 | 0.0 | 0.00 | 0.00 | 0.00 | 82 | 1010.1 |
| 20260831120304 | 14 | 195 | 0.0 | 0.0 | 0.00 | 0.00 | 0.00 | 82 | 1010.1 |
| 20260831120257 | 14 | 195 | 0.0 | 0.0 | 0.00 | 0.00 | 0.00 | 82 | 1010.1 |